Regional Weather Roundup
Issued by NWS

Home | Current Version | Previous Version | Graphics & Text | Print | Product List | Glossary On
Versions: 1 2 3 4 5 6 7 8 9 10 11 12 13 14 15 16 17 18 19 20 21 22 23 24 25 26 27 28 29 30 31 32 33 34 35 36 37 38 39 40 41 42 43 44 45 46 47 48 49 50
000
ASUS43 KFSD 281202
RWRSD

WEATHER ROUNDUP FOR SOUTH DAKOTA
NATIONAL WEATHER SERVICE SIOUX FALLS SD
700 AM CDT THU APR 28 2016

NOTE: "FAIR" INDICATES FEW OR NO CLOUDS BELOW 12,000 FEET WITH NO
SIGNIFICANT WEATHER AND/OR OBSTRUCTIONS TO VISIBILITY.


SDZ001>005-009-010-012>017-281300-
NORTHWEST AND NORTH CENTRAL SOUTH DAKOTA

CITY           SKY/WX    TMP DP  RH WIND       PRES   REMARKS
BUFFALO          N/A     34  32  92 N10       29.95R WCI  26
FAITH            N/A     32  30  92 N10       29.99R WCI  24
MOBRIDGE       CLOUDY    37  35  92 NE6       29.99R
$$

SDZ012>016-024>037-041>051-057-063-072>074-281300-
SOUTHWEST AND SOUTH CENTRAL SOUTH DAKOTA

CITY           SKY/WX    TMP DP  RH WIND       PRES   REMARKS
RAPID CTY ARPT LGT SNOW  32  31  96 N14       29.98R FOG     WCI  22
PIERRE         CLOUDY    35  33  92 NE8       29.98R WCI  29
CUSTER         CLOUDY    27  22  81 N6        29.91R WCI  20
PHILIP         CLOUDY    34  33  96 N10       29.99R WCI  26
PINE RIDGE     CLOUDY    32  29  88 NW9       29.97R WCI  24
WINNER         LGT RAIN  38  35  89 N13       29.95R FOG
$$

SDZ004>011-016>023-039-040-281300-
NORTHEAST SOUTH DAKOTA

CITY           SKY/WX    TMP DP  RH WIND       PRES   REMARKS
ABERDEEN       CLOUDY    39  33  79 NE10      29.98R
WATERTOWN      CLOUDY    36  30  79 NE13      29.91R
SISSETON         N/A     38  31  76 E10       29.97R
$$

SDZ017-020-022-023-036>040-048>070-281300-
SOUTHEAST SOUTH DAKOTA

CITY           SKY/WX    TMP DP  RH WIND       PRES   REMARKS
SIOUX FALLS    LGT RAIN  39  36  89 NE12      29.86R
HURON          LGT RAIN  38  34  85 NE9       29.93R
MITCHELL       LGT RAIN  39  38  96 N12       29.92R
YANKTON        CLOUDY    41  37  87 N6        29.86R
$$

ABBREVIATIONS USED IN REMARKS
   TC - TEMPERATURE IN CELSIUS
  WCI - WIND CHILL INDEX
   HX - HEAT INDEX
  VSB - VISIBILITY





USA.gov is the U.S. government's official web portal to all federal, state and local government web resources and services.